[Date Prev][Date Next][Thread Prev][Thread Next] - [Date Index][Thread Index][Author Index]

2 Line ISS Keps 2-15



ISS
1 25544U 98067A   04046.26701389  .00019242  00000-0  18090-3 0  1968
2 25544  51.6279 231.5562 0007112 166.4898 192.0410 15.67131683299029

----
Via the sarex mailing list at AMSAT.ORG courtesy of AMSAT-NA.
To unsubscribe, send "unsubscribe sarex" to Majordomo@amsat.org



AMSAT Top AMSAT Home